Powrót do katalogu

TITAN 3C TRANSTAGE DEB

AktywnyMEO
NORAD 43284·DEBRIS·🇺🇸 United States

Wystrzelony Feb 9, 1969 z Cape Canaveral Space Force Station

Loading…

Następne Przeloty (najbliższe 24 godziny)

TLE

ŚwieżeSource: Space-Track

Epoka: Sep 13, 2026, 16:56 UTC

1 43284U 69013E   26256.70562072 -.00000215  00000-0  00000-0 0  9999
2 43284   1.5660  76.3072 0139542  47.6370 314.4579  0.97232727 30158

Śledź TITAN 3C TRANSTAGE DEB w czasie rzeczywistym z AllMySat

Download on the App Store